Sisseton, SD

2:23 AM CDT on August 21, 2017 (GMT -0500)
Sisseton

Weather History for K8D3 - August, 2012

Change the Weather History Date:

Saturday, August 11, 2012

  Actual Average Record
Temperature  
Mean Temperature 59 °F 70 °F  
Max Temperature 71 °F 82 °F 102 °F (1936)
Min Temperature 46 °F 59 °F 40 °F (1902)
Degree Days  
Heating Degree Days 6 1  
Month to date heating degree days 11 2  
Since 1 June heating degree days 38 77  
Since 1 July heating degree days 11 15  
Cooling Degree Days 0 6  
Month to date cooling degree days 46 68  
Year to date cooling degree days 599 390  
Since 1 June cooling degree days 541 367  
Growing Degree Days 8 (Base 50)    
Moisture  
Dew Point 54 °F    
Average Humidity 79    
Maximum Humidity 100    
Minimum Humidity 57    
Precipitation  
Precipitation 0.30 in 0.07 in 1.21 in (2008)
Month to date precipitation 0.40 1.02  
Year to date precipitation 13.61 15.32  
Sea Level Pressure  
Sea Level Pressure 30.02 in    
Wind  
Wind Speed 8 mph (SSE)    
Max Wind Speed 16 mph    
Max Gust Speed 21 mph    
T = Trace of Precipitation, MM = Missing Value Source: NWS Daily Summary

Daily Weather History Graph

Daily Weather History Graph

Search for Another Location

Airport or City:

Trip Planner

Search our weather history database for the weather conditions in past years. The results will help you decide how hot, cold, wet, or windy it might be!

Date:

Astronomy

Aug. 11, 2012 Rise Set
Actual Time 6:23 AM CDT 8:41 PM CDT
Civil Twilight 5:51 AM CDT 9:14 PM CDT
Nautical Twilight 5:10 AM CDT 9:54 PM CDT
Astronomical Twilight 4:24 AM CDT 10:40 PM CDT
Moon 12:48 AM CDT (8/11) 4:22 PM CDT (8/11)
Length of Visible Light 15h 22m
Length of Day
14h 17m
Waning Crescent, 32% of the Moon is Illuminated
Aug 11
Waning Crescent
Aug 17
New
Aug 24
First Quarter
Aug 31
Full
Sep 8
Last Quarter

Hourly Weather History & Observations

Time (CDT) Temp. Dew Point Humidity Pressure Visibility Wind Dir Wind Speed Gust Speed Precip Events Conditions
12:56 AM 52.0 °F 48.9 °F 89% 30.06 in - SSW 3.5 mph - N/A   Unknown
1:56 AM 50.0 °F 48.0 °F 93% 30.07 in - SE 3.5 mph - N/A   Unknown
2:56 AM 50.0 °F 46.9 °F 89% 30.06 in - SSE 4.6 mph - N/A   Unknown
3:56 AM 51.1 °F 48.9 °F 92% 30.07 in - South 3.5 mph - N/A   Unknown
4:56 AM 46.9 °F 46.0 °F 97% 30.05 in - SE 5.8 mph - N/A   Unknown
5:56 AM 46.9 °F 46.0 °F 97% 30.05 in - SSE 6.9 mph - N/A   Unknown
6:56 AM 48.9 °F 48.0 °F 97% 30.05 in - SSE 4.6 mph - N/A   Unknown
7:56 AM 54.0 °F 52.0 °F 93% 30.05 in - SSE 4.6 mph - N/A   Unknown
8:56 AM 61.0 °F 54.0 °F 78% 30.06 in - South 6.9 mph - N/A   Unknown
9:56 AM 64.9 °F 55.0 °F 70% 30.04 in - SSE 9.2 mph - N/A   Unknown
10:56 AM 68.0 °F 55.9 °F 65% 30.04 in - South 12.7 mph - N/A   Unknown
11:56 AM 70.0 °F 55.9 °F 61% 30.03 in - South 10.4 mph 18.4 mph N/A   Unknown
12:56 PM 70.0 °F 55.0 °F 59% 30.02 in - SSW 10.4 mph - N/A   Unknown
1:56 PM 71.1 °F 55.9 °F 59% 30.00 in - South 11.5 mph 18.4 mph N/A   Unknown
2:56 PM 69.1 °F 55.0 °F 61% 29.99 in - South 10.4 mph - N/A   Unknown
3:56 PM 69.1 °F 55.9 °F 63% 29.98 in - SSE 11.5 mph - N/A   Unknown
4:56 PM 69.1 °F 55.9 °F 63% 29.97 in - SE 9.2 mph - N/A   Unknown
5:56 PM 68.0 °F 57.0 °F 68% 29.97 in - South 8.1 mph - N/A   Unknown
6:56 PM 66.9 °F 57.0 °F 70% 29.96 in - SSE 9.2 mph - N/A   Unknown
7:56 PM 63.0 °F 60.1 °F 90% 29.96 in - SSE 8.1 mph - 0.03 in   Unknown
8:56 PM 62.1 °F 60.1 °F 93% 29.97 in - South 5.8 mph - 0.11 in   Unknown
9:56 PM 61.0 °F 59.0 °F 93% 29.99 in - SE 8.1 mph - 0.06 in   Unknown
10:56 PM 60.1 °F 57.9 °F 93% 29.98 in - SSE 6.9 mph - 0.06 in   Unknown
11:56 PM 59.0 °F 57.0 °F 93% 29.97 in - South 5.8 mph - 0.03 in   Unknown